Time,TemperatureF,DewpointF,PressureIn,WindDirection,WindDirectionDegrees,WindSpeedMPH,WindSpeedGustMPH,Humidity,HourlyPrecipIn,Conditions,Clouds,dailyrainin,SoftwareType,DateUTC
2013-11-15 00:00:00,73.0,63.0,30.11,West,272,4.0,4.0,71,0.00,,,0.00,Wunderground v.1.15,2013-11-15 05:00:00,
2013-11-15 00:05:00,73.1,63.1,30.11,WSW,253,5.0,7.0,71,0.00,,,0.00,Wunderground v.1.15,2013-11-15 05:05:00,
2013-11-15 00:10:00,73.3,62.9,30.10,South,187,6.0,6.0,70,0.00,,,0.00,Wunderground v.1.15,2013-11-15 05:10:00,
2013-11-15 00:15:00,73.3,63.3,30.11,SW,231,5.0,6.0,71,0.00,,,0.00,Wunderground v.1.15,2013-11-15 05:15:00,
2013-11-15 00:20:00,73.3,63.3,30.11,SW,235,4.0,6.0,71,0.00,,,0.00,Wunderground v.1.15,2013-11-15 05:20:00,
2013-11-15 00:25:00,73.3,63.3,30.11,WNW,302,4.0,6.0,71,0.00,,,0.00,Wunderground v.1.15,2013-11-15 05:25:00,
2013-11-15 00:30:00,73.3,63.3,30.11,WNW,285,4.0,5.0,71,0.00,,,0.00,Wunderground v.1.15,2013-11-15 05:30:00,
2013-11-15 00:35:00,73.4,63.4,30.11,WSW,255,4.0,12.0,71,0.00,,,0.00,Wunderground v.1.15,2013-11-15 05:35:00,
2013-11-15 00:40:00,73.5,63.5,30.10,West,260,5.0,5.0,71,0.00,,,0.00,Wunderground v.1.15,2013-11-15 05:40:00,
2013-11-15 00:45:00,73.6,63.2,30.10,WNW,296,5.0,6.0,70,0.00,,,0.00,Wunderground v.1.15,2013-11-15 05:45:00,
2013-11-15 00:50:00,73.6,63.2,30.10,SSW,198,5.0,5.0,70,0.00,,,0.00,Wunderground v.1.15,2013-11-15 05:50:00,
2013-11-15 00:55:00,73.6,63.2,30.10,WSW,245,5.0,12.0,70,0.00,,,0.00,Wunderground v.1.15,2013-11-15 05:55:00,
2013-11-15 01:00:00,73.6,63.2,30.10,West,260,5.0,5.0,70,0.00,,,0.00,Wunderground v.1.15,2013-11-15 06:00:00,
2013-11-15 01:05:00,73.6,63.2,30.10,WSW,243,5.0,6.0,70,0.00,,,0.00,Wunderground v.1.15,2013-11-15 06:05:00,
2013-11-15 01:10:00,73.6,62.8,30.09,West,268,5.0,5.0,69,0.00,,,0.00,Wunderground v.1.15,2013-11-15 06:10:00,
2013-11-15 01:15:00,73.6,62.8,30.09,WNW,290,4.0,5.0,69,0.00,,,0.00,Wunderground v.1.15,2013-11-15 06:15:00,
2013-11-15 01:20:00,73.6,62.8,30.09,WSW,239,3.0,4.0,69,0.00,,,0.00,Wunderground v.1.15,2013-11-15 06:20:00,
2013-11-15 01:25:00,73.7,62.5,30.09,West,275,3.0,4.0,68,0.00,,,0.00,Wunderground v.1.15,2013-11-15 06:25:00,
2013-11-15 01:30:00,73.7,62.1,30.10,WSW,258,3.0,3.0,67,0.00,,,0.00,Wunderground v.1.15,2013-11-15 06:30:00,
2013-11-15 01:35:00,73.7,61.6,30.09,South,187,2.0,4.0,66,0.00,,,0.00,Wunderground v.1.15,2013-11-15 06:35:00,
2013-11-15 01:40:00,73.7,61.6,30.09,WNW,297,2.0,13.0,66,0.00,,,0.00,Wunderground v.1.15,2013-11-15 06:40:00,
2013-11-15 01:45:00,73.6,61.1,30.08,West,261,3.0,13.0,65,0.00,,,0.00,Wunderground v.1.15,2013-11-15 06:45:00,
2013-11-15 01:50:00,73.5,61.0,30.08,SW,226,2.0,13.0,65,0.00,,,0.00,Wunderground v.1.15,2013-11-15 06:50:00,
2013-11-15 01:55:00,73.5,60.6,30.09,WSW,245,2.0,13.0,64,0.00,,,0.00,Wunderground v.1.15,2013-11-15 06:55:00,
2013-11-15 02:00:00,73.4,60.9,30.08,NW,311,2.0,2.0,65,0.00,,,0.00,Wunderground v.1.15,2013-11-15 07:00:00,
2013-11-15 02:05:00,73.3,60.8,30.09,WSW,244,1.0,3.0,65,0.00,,,0.00,Wunderground v.1.15,2013-11-15 07:05:00,
2013-11-15 02:10:00,73.3,60.8,30.08,West,266,2.0,2.0,65,0.00,,,0.00,Wunderground v.1.15,2013-11-15 07:10:00,
2013-11-15 02:15:00,73.3,60.8,30.08,WSW,255,2.0,3.0,65,0.00,,,0.00,Wunderground v.1.15,2013-11-15 07:15:00,
2013-11-15 02:20:00,73.3,60.8,30.08,WSW,245,2.0,4.0,65,0.00,,,0.00,Wunderground v.1.15,2013-11-15 07:20:00,
2013-11-15 02:25:00,73.3,60.8,30.08,WNW,289,3.0,4.0,65,0.00,,,0.00,Wunderground v.1.15,2013-11-15 07:25:00,
2013-11-15 02:30:00,73.4,60.9,30.08,WSW,245,3.0,3.0,65,0.00,,,0.00,Wunderground v.1.15,2013-11-15 07:30:00,
2013-11-15 02:35:00,73.5,61.0,30.08,WSW,238,2.0,4.0,65,0.00,,,0.00,Wunderground v.1.15,2013-11-15 07:35:00,
2013-11-15 02:40:00,73.4,61.3,30.07,West,266,2.0,10.0,66,0.00,,,0.00,Wunderground v.1.15,2013-11-15 07:40:00,
2013-11-15 02:45:00,73.4,61.8,30.07,WSW,255,2.0,10.0,67,0.00,,,0.00,Wunderground v.1.15,2013-11-15 07:45:00,
2013-11-15 02:50:00,73.4,61.8,30.07,West,264,3.0,3.0,67,0.00,,,0.00,Wunderground v.1.15,2013-11-15 07:50:00,
2013-11-15 02:55:00,73.5,62.3,30.06,West,281,3.0,10.0,68,0.00,,,0.00,Wunderground v.1.15,2013-11-15 07:55:00,
2013-11-15 03:00:00,73.5,62.3,30.06,WSW,248,3.0,3.0,68,0.00,,,0.00,Wunderground v.1.15,2013-11-15 08:00:00,
2013-11-15 03:05:00,73.5,62.3,30.06,SW,217,3.0,3.0,68,0.00,,,0.00,Wunderground v.1.15,2013-11-15 08:05:00,
2013-11-15 03:10:00,73.6,62.8,30.06,SW,231,3.0,3.0,69,0.00,,,0.00,Wunderground v.1.15,2013-11-15 08:10:00,
2013-11-15 03:15:00,73.6,62.8,30.06,WSW,250,3.0,4.0,69,0.00,,,0.00,Wunderground v.1.15,2013-11-15 08:15:00,
2013-11-15 03:20:00,73.8,63.0,30.06,West,264,3.0,5.0,69,0.00,,,0.00,Wunderground v.1.15,2013-11-15 08:20:00,
2013-11-15 03:25:00,73.8,63.0,30.06,SW,229,3.0,5.0,69,0.00,,,0.00,Wunderground v.1.15,2013-11-15 08:25:00,
2013-11-15 03:30:00,73.8,63.4,30.06,SW,233,3.0,4.0,70,0.00,,,0.00,Wunderground v.1.15,2013-11-15 08:30:00,
2013-11-15 03:35:00,73.9,63.5,30.06,WSW,249,3.0,6.0,70,0.00,,,0.00,Wunderground v.1.15,2013-11-15 08:35:00,
2013-11-15 03:40:00,73.9,63.5,30.06,West,270,3.0,3.0,70,0.00,,,0.00,Wunderground v.1.15,2013-11-15 08:40:00,
2013-11-15 03:45:00,74.0,63.6,30.07,WNW,297,3.0,6.0,70,0.00,,,0.00,Wunderground v.1.15,2013-11-15 08:45:00,
2013-11-15 03:50:00,73.9,63.5,30.07,WSW,238,2.0,6.0,70,0.00,,,0.00,Wunderground v.1.15,2013-11-15 08:50:00,
2013-11-15 03:55:00,74.0,64.0,30.06,NW,310,2.0,6.0,71,0.00,,,0.00,Wunderground v.1.15,2013-11-15 08:55:00,
2013-11-15 04:00:00,73.8,63.8,30.06,WNW,285,2.0,2.0,71,0.00,,,0.00,Wunderground v.1.15,2013-11-15 09:00:00,
2013-11-15 04:05:00,73.7,63.7,30.06,West,269,2.0,2.0,71,0.00,,,0.00,Wunderground v.1.15,2013-11-15 09:05:00,
2013-11-15 04:10:00,73.7,63.7,30.06,West,275,2.0,2.0,71,0.00,,,0.00,Wunderground v.1.15,2013-11-15 09:10:00,
2013-11-15 04:15:00,73.6,64.0,30.06,West,259,2.0,6.0,72,0.00,,,0.00,Wunderground v.1.15,2013-11-15 09:15:00,
2013-11-15 04:20:00,74.0,64.0,30.06,WNW,289,3.0,3.0,71,0.00,,,0.00,Wunderground v.1.15,2013-11-15 09:20:00,
2013-11-15 04:25:00,74.1,64.1,30.06,West,266,3.0,3.0,71,0.00,,,0.00,Wunderground v.1.15,2013-11-15 09:25:00,
2013-11-15 04:30:00,74.1,64.1,30.05,WSW,239,3.0,3.0,71,0.00,,,0.00,Wunderground v.1.15,2013-11-15 09:30:00,
2013-11-15 04:35:00,74.1,64.5,30.06,WNW,283,3.0,5.0,72,0.00,,,0.00,Wunderground v.1.15,2013-11-15 09:35:00,
2013-11-15 04:40:00,74.0,64.8,30.06,West,264,3.0,3.0,73,0.00,,,0.00,Wunderground v.1.15,2013-11-15 09:40:00,
2013-11-15 04:45:00,73.9,64.7,30.06,NW,309,3.0,6.0,73,0.00,,,0.00,Wunderground v.1.15,2013-11-15 09:45:00,
2013-11-15 04:50:00,73.9,64.7,30.06,WSW,245,3.0,8.0,73,0.00,,,0.00,Wunderground v.1.15,2013-11-15 09:50:00,
2013-11-15 04:55:00,73.9,65.1,30.06,West,266,3.0,8.0,74,0.00,,,0.00,Wunderground v.1.15,2013-11-15 09:55:00,
2013-11-15 05:00:00,73.7,64.9,30.06,West,273,3.0,3.0,74,0.00,,,0.00,Wunderground v.1.15,2013-11-15 10:00:00,
2013-11-15 05:05:00,73.7,65.3,30.06,WSW,238,3.0,3.0,75,0.00,,,0.00,Wunderground v.1.15,2013-11-15 10:05:00,
2013-11-15 05:10:00,73.7,65.3,30.06,West,265,3.0,3.0,75,0.00,,,0.00,Wunderground v.1.15,2013-11-15 10:10:00,
2013-11-15 05:15:00,73.7,65.3,30.06,West,281,3.0,3.0,75,0.00,,,0.00,Wunderground v.1.15,2013-11-15 10:15:00,
2013-11-15 05:20:00,73.8,65.4,30.06,SW,233,4.0,4.0,75,0.00,,,0.00,Wunderground v.1.15,2013-11-15 10:20:00,
2013-11-15 05:25:00,73.8,65.4,30.06,NW,305,4.0,4.0,75,0.00,,,0.00,Wunderground v.1.15,2013-11-15 10:25:00,
2013-11-15 05:30:00,73.9,65.5,30.06,WSW,250,3.0,4.0,75,0.00,,,0.00,Wunderground v.1.15,2013-11-15 10:30:00,
2013-11-15 05:35:00,73.9,65.5,30.06,WSW,241,4.0,9.0,75,0.00,,,0.00,Wunderground v.1.15,2013-11-15 10:35:00,
2013-11-15 05:40:00,74.0,65.6,30.06,WNW,301,4.0,4.0,75,0.00,,,0.00,Wunderground v.1.15,2013-11-15 10:40:00,
2013-11-15 05:45:00,74.0,65.6,30.06,West,269,3.0,9.0,75,0.00,,,0.00,Wunderground v.1.15,2013-11-15 10:45:00,
2013-11-15 05:50:00,74.1,66.0,30.07,WSW,255,3.0,9.0,76,0.00,,,0.00,Wunderground v.1.15,2013-11-15 10:50:00,
2013-11-15 05:55:00,74.4,66.3,30.07,WSW,240,4.0,9.0,76,0.00,,,0.00,Wunderground v.1.15,2013-11-15 10:55:00,
2013-11-15 06:00:00,74.4,66.3,30.07,WSW,242,4.0,5.0,76,0.00,,,0.00,Wunderground v.1.15,2013-11-15 11:00:00,
2013-11-15 06:05:00,74.4,66.3,30.06,West,281,3.0,5.0,76,0.00,,,0.00,Wunderground v.1.15,2013-11-15 11:05:00,
2013-11-15 06:10:00,74.5,66.4,30.06,WSW,257,4.0,6.0,76,0.00,,,0.00,Wunderground v.1.15,2013-11-15 11:10:00,
2013-11-15 06:15:00,74.5,66.4,30.06,WNW,288,4.0,6.0,76,0.00,,,0.00,Wunderground v.1.15,2013-11-15 11:15:00,
2013-11-15 06:20:00,74.5,66.4,30.07,SW,225,4.0,4.0,76,0.00,,,0.00,Wunderground v.1.15,2013-11-15 11:20:00,
2013-11-15 06:25:00,74.7,66.2,30.07,WSW,256,5.0,5.0,75,0.00,,,0.00,Wunderground v.1.15,2013-11-15 11:25:00,
2013-11-15 06:30:00,74.6,66.1,30.07,NW,308,4.0,5.0,75,0.00,,,0.00,Wunderground v.1.15,2013-11-15 11:30:00,
2013-11-15 06:35:00,74.6,66.1,30.07,West,267,3.0,9.0,75,0.00,,,0.00,Wunderground v.1.15,2013-11-15 11:35:00,
2013-11-15 06:40:00,74.6,66.1,30.08,WSW,255,3.0,3.0,75,0.00,,,0.00,Wunderground v.1.15,2013-11-15 11:40:00,
2013-11-15 06:45:00,74.6,66.5,30.08,WSW,244,3.0,9.0,76,0.00,,,0.00,Wunderground v.1.15,2013-11-15 11:45:00,
2013-11-15 06:50:00,74.7,66.2,30.08,WSW,255,4.0,9.0,75,0.00,,,0.00,Wunderground v.1.15,2013-11-15 11:50:00,
2013-11-15 06:55:00,74.8,66.3,30.08,WSW,255,5.0,9.0,75,0.00,,,0.00,Wunderground v.1.15,2013-11-15 11:55:00,
2013-11-15 07:00:00,74.8,66.3,30.08,WSW,244,4.0,5.0,75,0.00,,,0.00,Wunderground v.1.15,2013-11-15 12:00:00,
2013-11-15 07:05:00,74.8,66.3,30.09,West,260,4.0,8.0,75,0.00,,,0.00,Wunderground v.1.15,2013-11-15 12:05:00,
2013-11-15 07:10:00,75.0,66.5,30.08,WSW,247,4.0,4.0,75,0.00,,,0.00,Wunderground v.1.15,2013-11-15 12:10:00,
2013-11-15 07:15:00,75.0,66.5,30.08,West,269,4.0,4.0,75,0.00,,,0.00,Wunderground v.1.15,2013-11-15 12:15:00,
2013-11-15 07:20:00,75.1,67.0,30.08,West,278,4.0,4.0,76,0.00,,,0.00,Wunderground v.1.15,2013-11-15 12:20:00,
2013-11-15 07:25:00,75.2,67.1,30.08,West,259,3.0,4.0,76,0.00,,,0.00,Wunderground v.1.15,2013-11-15 12:25:00,
2013-11-15 07:30:00,75.3,66.8,30.08,WNW,294,3.0,3.0,75,0.00,,,0.00,Wunderground v.1.15,2013-11-15 12:30:00,
2013-11-15 07:35:00,75.6,67.1,30.08,WSW,253,3.0,11.0,75,0.00,,,0.00,Wunderground v.1.15,2013-11-15 12:35:00,
2013-11-15 07:40:00,75.8,66.9,30.08,WNW,299,4.0,11.0,74,0.00,,,0.00,Wunderground v.1.15,2013-11-15 12:40:00,
2013-11-15 07:45:00,76.1,66.8,30.08,West,278,4.0,11.0,73,0.00,,,0.00,Wunderground v.1.15,2013-11-15 12:45:00,
2013-11-15 07:50:00,76.2,66.9,30.09,WSW,248,3.0,3.0,73,0.00,,,0.00,Wunderground v.1.15,2013-11-15 12:50:00,
2013-11-15 07:55:00,76.4,66.7,30.09,West,262,4.0,4.0,72,0.00,,,0.00,Wunderground v.1.15,2013-11-15 12:55:00,
2013-11-15 08:00:00,76.6,66.9,30.09,West,276,3.0,3.0,72,0.00,,,0.00,Wunderground v.1.15,2013-11-15 13:00:00,
2013-11-15 08:05:00,76.7,67.0,30.09,WNW,295,3.0,3.0,72,0.00,,,0.00,Wunderground v.1.15,2013-11-15 13:05:00,
2013-11-15 08:10:00,76.7,66.6,30.10,NW,311,3.0,3.0,71,0.00,,,0.00,Wunderground v.1.15,2013-11-15 13:10:00,
2013-11-15 08:15:00,76.8,66.3,30.10,NW,309,3.0,3.0,70,0.00,,,0.00,Wunderground v.1.15,2013-11-15 13:15:00,
2013-11-15 08:20:00,76.8,65.9,30.10,SSW,200,4.0,4.0,69,0.00,,,0.00,Wunderground v.1.15,2013-11-15 13:20:00,
2013-11-15 08:25:00,76.9,66.0,30.10,South,179,4.0,4.0,69,0.00,,,0.00,Wunderground v.1.15,2013-11-15 13:25:00,
2013-11-15 08:30:00,76.9,66.0,30.10,South,169,4.0,5.0,69,0.00,,,0.00,Wunderground v.1.15,2013-11-15 13:30:00,
2013-11-15 08:35:00,76.9,66.0,30.10,South,181,4.0,9.0,69,0.00,,,0.00,Wunderground v.1.15,2013-11-15 13:35:00,
2013-11-15 08:40:00,76.9,65.5,30.10,SW,220,4.0,9.0,68,0.00,,,0.00,Wunderground v.1.15,2013-11-15 13:40:00,
2013-11-15 08:45:00,77.0,65.6,30.10,WSW,237,4.0,9.0,68,0.00,,,0.00,Wunderground v.1.15,2013-11-15 13:45:00,
2013-11-15 08:50:00,77.1,65.7,30.11,WNW,297,4.0,4.0,68,0.00,,,0.00,Wunderground v.1.15,2013-11-15 13:50:00,
2013-11-15 08:55:00,77.2,65.4,30.11,NW,313,4.0,9.0,67,0.00,,,0.00,Wunderground v.1.15,2013-11-15 13:55:00,
2013-11-15 09:00:00,77.3,65.5,30.11,WNW,291,4.0,9.0,67,0.00,,,0.00,Wunderground v.1.15,2013-11-15 14:00:00,
2013-11-15 09:05:00,77.4,65.6,30.11,NW,321,4.0,9.0,67,0.00,,,0.00,Wunderground v.1.15,2013-11-15 14:05:00,
2013-11-15 09:15:00,77.9,65.6,30.11,West,275,4.0,5.0,66,0.00,,,0.00,Wunderground v.1.15,2013-11-15 14:15:00,
2013-11-15 09:20:00,78.2,65.9,30.11,NW,326,4.0,5.0,66,0.00,,,0.00,Wunderground v.1.15,2013-11-15 14:20:00,
2013-11-15 09:25:00,78.4,66.1,30.11,WNW,302,3.0,5.0,66,0.00,,,0.00,Wunderground v.1.15,2013-11-15 14:25:00,
2013-11-15 09:30:00,78.5,66.6,30.11,NW,314,3.0,3.0,67,0.00,,,0.00,Wunderground v.1.15,2013-11-15 14:30:00,
2013-11-15 09:35:00,78.6,66.3,30.11,WNW,290,4.0,4.0,66,0.00,,,0.00,Wunderground v.1.15,2013-11-15 14:35:00,
2013-11-15 09:40:00,78.7,66.8,30.12,NNW,334,4.0,14.0,67,0.00,,,0.00,Wunderground v.1.15,2013-11-15 14:40:00,
2013-11-15 09:45:00,78.6,66.7,30.11,North,351,5.0,14.0,67,0.00,,,0.00,Wunderground v.1.15,2013-11-15 14:45:00,
2013-11-15 09:50:00,78.8,66.9,30.12,WNW,292,4.0,4.0,67,0.00,,,0.00,Wunderground v.1.15,2013-11-15 14:50:00,
2013-11-15 09:55:00,78.9,67.0,30.12,West,268,3.0,14.0,67,0.00,,,0.00,Wunderground v.1.15,2013-11-15 14:55:00,
2013-11-15 10:00:00,78.9,67.0,30.11,West,278,3.0,4.0,67,0.00,,,0.00,Wunderground v.1.15,2013-11-15 15:00:00,
2013-11-15 10:10:00,78.8,66.9,30.11,NW,326,3.0,6.0,67,0.00,,,0.00,Wunderground v.1.15,2013-11-15 15:10:00,
2013-11-15 10:15:00,79.0,66.2,30.11,North,350,4.0,6.0,65,0.00,,,0.00,Wunderground v.1.15,2013-11-15 15:15:00,
2013-11-15 10:20:00,79.2,66.4,30.11,North,350,4.0,4.0,65,0.00,,,0.00,Wunderground v.1.15,2013-11-15 15:20:00,
2013-11-15 10:25:00,79.8,67.0,30.11,NNE,15,4.0,8.0,65,0.00,,,0.00,Wunderground v.1.15,2013-11-15 15:25:00,
2013-11-15 10:30:00,80.0,66.7,30.11,NNE,23,3.0,3.0,64,0.00,,,0.00,Wunderground v.1.15,2013-11-15 15:30:00,
2013-11-15 10:35:00,80.0,66.7,30.11,SE,137,3.0,6.0,64,0.00,,,0.00,Wunderground v.1.15,2013-11-15 15:35:00,
2013-11-15 10:40:00,80.0,66.7,30.11,ENE,78,4.0,4.0,64,0.00,,,0.00,Wunderground v.1.15,2013-11-15 15:40:00,
2013-11-15 10:45:00,80.0,66.7,30.11,NE,46,4.0,10.0,64,0.00,,,0.00,Wunderground v.1.15,2013-11-15 15:45:00,
2013-11-15 10:50:00,80.2,66.9,30.11,ENE,58,4.0,10.0,64,0.00,,,0.00,Wunderground v.1.15,2013-11-15 15:50:00,
2013-11-15 10:55:00,80.3,67.0,30.11,ENE,77,4.0,10.0,64,0.00,,,0.00,Wunderground v.1.15,2013-11-15 15:55:00,
2013-11-15 11:00:00,80.3,66.6,30.10,ENE,74,5.0,5.0,63,0.00,,,0.00,Wunderground v.1.15,2013-11-15 16:00:00,
2013-11-15 11:05:00,80.7,66.5,30.10,ENE,76,6.0,6.0,62,0.00,,,0.00,Wunderground v.1.15,2013-11-15 16:05:00,
2013-11-15 11:10:00,81.0,66.8,30.10,NE,48,5.0,12.0,62,0.00,,,0.00,Wunderground v.1.15,2013-11-15 16:10:00,
2013-11-15 11:15:00,81.2,66.9,30.10,East,81,4.0,12.0,62,0.00,,,0.00,Wunderground v.1.15,2013-11-15 16:15:00,
2013-11-15 11:20:00,80.9,66.7,30.10,NNE,27,5.0,6.0,62,0.00,,,0.00,Wunderground v.1.15,2013-11-15 16:20:00,
2013-11-15 11:25:00,80.5,66.3,30.09,NE,37,5.0,6.0,62,0.00,,,0.00,Wunderground v.1.15,2013-11-15 16:25:00,
2013-11-15 11:30:00,80.6,66.8,30.09,North,359,5.0,5.0,63,0.00,,,0.00,Wunderground v.1.15,2013-11-15 16:30:00,
2013-11-15 11:35:00,80.7,66.9,30.09,East,89,4.0,10.0,63,0.00,,,0.00,Wunderground v.1.15,2013-11-15 16:35:00,
2013-11-15 11:40:00,80.6,67.3,30.08,North,11,4.0,10.0,64,0.00,,,0.00,Wunderground v.1.15,2013-11-15 16:40:00,
2013-11-15 11:45:00,80.6,66.8,30.08,SSW,199,5.0,10.0,63,0.00,,,0.00,Wunderground v.1.15,2013-11-15 16:45:00,
2013-11-15 11:50:00,80.4,67.1,30.08,SSW,195,5.0,5.0,64,0.00,,,0.00,Wunderground v.1.15,2013-11-15 16:50:00,
2013-11-15 11:55:00,80.7,67.4,30.07,NE,41,5.0,8.0,64,0.00,,,0.00,Wunderground v.1.15,2013-11-15 16:55:00,
2013-11-15 12:00:00,80.9,67.6,30.07,North,360,6.0,11.0,64,0.00,,,0.00,Wunderground v.1.15,2013-11-15 17:00:00,
2013-11-15 12:05:00,80.7,67.4,30.07,NE,53,5.0,11.0,64,0.00,,,0.00,Wunderground v.1.15,2013-11-15 17:05:00,
2013-11-15 12:10:00,81.0,67.7,30.07,NE,55,5.0,8.0,64,0.00,,,0.00,Wunderground v.1.15,2013-11-15 17:10:00,
2013-11-15 12:15:00,81.1,67.8,30.07,NE,47,4.0,8.0,64,0.00,,,0.00,Wunderground v.1.15,2013-11-15 17:15:00,
2013-11-15 12:20:00,81.1,67.3,30.07,North,6,4.0,7.0,63,0.00,,,0.00,Wunderground v.1.15,2013-11-15 17:20:00,
2013-11-15 12:25:00,81.1,67.3,30.07,NE,44,4.0,8.0,63,0.00,,,0.00,Wunderground v.1.15,2013-11-15 17:25:00,
2013-11-15 12:30:00,80.9,67.6,30.07,NNW,343,5.0,8.0,64,0.00,,,0.00,Wunderground v.1.15,2013-11-15 17:30:00,
2013-11-15 12:35:00,81.0,67.2,30.06,North,353,5.0,16.0,63,0.00,,,0.00,Wunderground v.1.15,2013-11-15 17:35:00,
2013-11-15 12:40:00,81.1,67.3,30.06,North,353,4.0,16.0,63,0.00,,,0.00,Wunderground v.1.15,2013-11-15 17:40:00,
2013-11-15 12:45:00,80.9,67.1,30.06,North,4,4.0,16.0,63,0.00,,,0.00,Wunderground v.1.15,2013-11-15 17:45:00,
2013-11-15 12:50:00,80.3,67.0,30.06,NE,44,5.0,16.0,64,0.00,,,0.00,Wunderground v.1.15,2013-11-15 17:50:00,
2013-11-15 12:55:00,80.0,67.2,30.05,ENE,72,6.0,16.0,65,0.00,,,0.00,Wunderground v.1.15,2013-11-15 17:55:00,
2013-11-15 13:00:00,80.2,67.4,30.05,North,1,6.0,6.0,65,0.00,,,0.00,Wunderground v.1.15,2013-11-15 18:00:00,
2013-11-15 13:05:00,80.3,67.5,30.05,ENE,63,4.0,6.0,65,0.00,,,0.00,Wunderground v.1.15,2013-11-15 18:05:00,
2013-11-15 13:10:00,80.4,67.6,30.05,ENE,73,4.0,5.0,65,0.00,,,0.00,Wunderground v.1.15,2013-11-15 18:10:00,
2013-11-15 13:15:00,80.5,67.6,30.04,WSW,242,5.0,5.0,65,0.00,,,0.00,Wunderground v.1.15,2013-11-15 18:15:00,
2013-11-15 13:20:00,80.4,67.6,30.04,SSW,209,4.0,7.0,65,0.00,,,0.00,Wunderground v.1.15,2013-11-15 18:20:00,
2013-11-15 13:25:00,80.5,67.6,30.04,ENE,68,5.0,7.0,65,0.00,,,0.00,Wunderground v.1.15,2013-11-15 18:25:00,
2013-11-15 13:30:00,80.7,67.8,30.03,NE,46,5.0,6.0,65,0.00,,,0.00,Wunderground v.1.15,2013-11-15 18:30:00,
2013-11-15 13:35:00,80.4,68.0,30.03,NE,51,5.0,8.0,66,0.00,,,0.00,Wunderground v.1.15,2013-11-15 18:35:00,
2013-11-15 13:40:00,80.6,67.7,30.03,NE,56,5.0,13.0,65,0.00,,,0.00,Wunderground v.1.15,2013-11-15 18:40:00,
2013-11-15 13:45:00,80.5,67.6,30.03,East,88,5.0,13.0,65,0.00,,,0.00,Wunderground v.1.15,2013-11-15 18:45:00,
2013-11-15 13:50:00,80.5,68.1,30.03,ENE,77,5.0,5.0,66,0.00,,,0.00,Wunderground v.1.15,2013-11-15 18:50:00,
2013-11-15 13:55:00,80.5,67.2,30.03,ENE,66,5.0,13.0,64,0.00,,,0.00,Wunderground v.1.15,2013-11-15 18:55:00,
2013-11-15 14:00:00,80.5,67.2,30.02,NNW,337,5.0,5.0,64,0.00,,,0.00,Wunderground v.1.15,2013-11-15 19:00:00,
2013-11-15 14:05:00,80.3,67.5,30.02,NNW,340,4.0,7.0,65,0.00,,,0.00,Wunderground v.1.15,2013-11-15 19:05:00,
2013-11-15 14:10:00,79.9,67.5,30.02,North,349,5.0,5.0,66,0.00,,,0.00,Wunderground v.1.15,2013-11-15 19:10:00,
2013-11-15 14:15:00,79.8,67.9,30.01,NE,51,5.0,5.0,67,0.00,,,0.00,Wunderground v.1.15,2013-11-15 19:15:00,
2013-11-15 14:20:00,80.1,67.7,30.01,NE,49,5.0,8.0,66,0.00,,,0.00,Wunderground v.1.15,2013-11-15 19:20:00,
2013-11-15 14:25:00,80.2,68.2,30.01,NE,37,4.0,8.0,67,0.00,,,0.00,Wunderground v.1.15,2013-11-15 19:25:00,
2013-11-15 14:30:00,80.6,68.2,30.01,NE,34,5.0,5.0,66,0.00,,,0.00,Wunderground v.1.15,2013-11-15 19:30:00,
2013-11-15 14:35:00,80.7,67.4,30.01,WSW,253,4.0,16.0,64,0.00,,,0.00,Wunderground v.1.15,2013-11-15 19:35:00,
2013-11-15 14:40:00,80.6,67.3,30.01,NNE,15,4.0,16.0,64,0.00,,,0.00,Wunderground v.1.15,2013-11-15 19:40:00,
2013-11-15 14:45:00,80.4,67.6,30.01,South,188,4.0,16.0,65,0.00,,,0.00,Wunderground v.1.15,2013-11-15 19:45:00,
2013-11-15 14:50:00,80.3,67.5,30.01,WSW,241,4.0,4.0,65,0.00,,,0.00,Wunderground v.1.15,2013-11-15 19:50:00,
2013-11-15 14:55:00,80.2,67.8,30.01,West,260,4.0,16.0,66,0.00,,,0.00,Wunderground v.1.15,2013-11-15 19:55:00,
2013-11-15 15:00:00,80.1,67.7,30.01,South,185,5.0,5.0,66,0.00,,,0.00,Wunderground v.1.15,2013-11-15 20:00:00,
2013-11-15 15:05:00,80.1,67.7,30.01,SW,221,4.0,5.0,66,0.00,,,0.00,Wunderground v.1.15,2013-11-15 20:05:00,
2013-11-15 15:10:00,79.8,67.9,30.01,SSW,193,4.0,4.0,67,0.00,,,0.00,Wunderground v.1.15,2013-11-15 20:10:00,
2013-11-15 15:15:00,79.7,67.8,30.01,SSW,207,4.0,4.0,67,0.00,,,0.00,Wunderground v.1.15,2013-11-15 20:15:00,
2013-11-15 15:20:00,79.5,67.6,30.01,South,181,3.0,4.0,67,0.00,,,0.00,Wunderground v.1.15,2013-11-15 20:20:00,
2013-11-15 15:25:00,79.4,67.5,30.01,SSW,193,4.0,6.0,67,0.00,,,0.00,Wunderground v.1.15,2013-11-15 20:25:00,
2013-11-15 15:30:00,79.5,67.6,30.01,South,188,5.0,5.0,67,0.00,,,0.00,Wunderground v.1.15,2013-11-15 20:30:00,
2013-11-15 15:35:00,79.5,67.6,30.01,SSW,195,4.0,6.0,67,0.00,,,0.00,Wunderground v.1.15,2013-11-15 20:35:00,
2013-11-15 15:40:00,79.3,67.4,30.01,SSW,201,5.0,5.0,67,0.00,,,0.00,Wunderground v.1.15,2013-11-15 20:40:00,
2013-11-15 15:45:00,79.4,67.9,30.00,South,184,5.0,11.0,68,0.00,,,0.00,Wunderground v.1.15,2013-11-15 20:45:00,
2013-11-15 15:50:00,79.5,68.0,30.01,SSW,193,5.0,5.0,68,0.00,,,0.00,Wunderground v.1.15,2013-11-15 20:50:00,
2013-11-15 15:55:00,79.5,67.6,30.01,WNW,285,5.0,11.0,67,0.00,,,0.00,Wunderground v.1.15,2013-11-15 20:55:00,
2013-11-15 16:00:00,79.6,67.2,30.01,SSE,166,5.0,7.0,66,0.00,,,0.00,Wunderground v.1.15,2013-11-15 21:00:00,
2013-11-15 16:05:00,79.4,67.5,30.01,South,186,5.0,7.0,67,0.00,,,0.00,Wunderground v.1.15,2013-11-15 21:05:00,
2013-11-15 16:10:00,79.3,67.8,30.01,SSW,201,5.0,9.0,68,0.00,,,0.00,Wunderground v.1.15,2013-11-15 21:10:00,
2013-11-15 16:15:00,79.1,67.6,30.01,SSE,157,5.0,9.0,68,0.00,,,0.00,Wunderground v.1.15,2013-11-15 21:15:00,
2013-11-15 16:20:00,79.1,67.6,30.01,South,189,5.0,7.0,68,0.00,,,0.00,Wunderground v.1.15,2013-11-15 21:20:00,
2013-11-15 16:25:00,79.0,67.5,30.01,South,187,5.0,7.0,68,0.00,,,0.00,Wunderground v.1.15,2013-11-15 21:25:00,
2013-11-15 16:30:00,78.9,67.4,30.01,WSW,248,5.0,5.0,68,0.00,,,0.00,Wunderground v.1.15,2013-11-15 21:30:00,
2013-11-15 16:35:00,78.9,67.9,30.01,WSW,248,5.0,11.0,69,0.00,,,0.00,Wunderground v.1.15,2013-11-15 21:35:00,
2013-11-15 16:40:00,78.9,67.9,30.01,North,7,4.0,4.0,69,0.00,,,0.00,Wunderground v.1.15,2013-11-15 21:40:00,
2013-11-15 16:45:00,78.8,67.8,30.01,South,179,3.0,11.0,69,0.00,,,0.00,Wunderground v.1.15,2013-11-15 21:45:00,
2013-11-15 16:50:00,78.7,68.1,30.01,SSW,206,3.0,11.0,70,0.00,,,0.00,Wunderground v.1.15,2013-11-15 21:50:00,
2013-11-15 16:55:00,78.6,68.0,30.01,SSW,198,3.0,11.0,70,0.00,,,0.00,Wunderground v.1.15,2013-11-15 21:55:00,
2013-11-15 17:00:00,78.6,68.0,30.01,WSW,252,4.0,4.0,70,0.00,,,0.00,Wunderground v.1.15,2013-11-15 22:00:00,
2013-11-15 17:05:00,78.5,67.9,30.01,SSW,210,3.0,4.0,70,0.00,,,0.00,Wunderground v.1.15,2013-11-15 22:05:00,
2013-11-15 17:10:00,78.5,67.9,30.01,SSW,194,3.0,3.0,70,0.00,,,0.00,Wunderground v.1.15,2013-11-15 22:10:00,
2013-11-15 17:15:00,78.5,67.9,30.01,SSE,159,4.0,4.0,70,0.00,,,0.00,Wunderground v.1.15,2013-11-15 22:15:00,
2013-11-15 17:20:00,78.4,67.8,30.01,West,262,4.0,4.0,70,0.00,,,0.00,Wunderground v.1.15,2013-11-15 22:20:00,
2013-11-15 17:25:00,78.4,67.8,30.01,SSW,207,4.0,4.0,70,0.00,,,0.00,Wunderground v.1.15,2013-11-15 22:25:00,
2013-11-15 17:30:00,78.4,67.8,30.01,WSW,248,3.0,4.0,70,0.00,,,0.00,Wunderground v.1.15,2013-11-15 22:30:00,
2013-11-15 17:35:00,78.3,67.7,30.01,South,191,3.0,10.0,70,0.00,,,0.00,Wunderground v.1.15,2013-11-15 22:35:00,
2013-11-15 17:40:00,78.4,67.4,30.01,South,176,3.0,10.0,69,0.00,,,0.00,Wunderground v.1.15,2013-11-15 22:40:00,
2013-11-15 17:45:00,78.2,69.2,30.01,West,279,3.0,10.0,74,0.00,,,0.00,Wunderground v.1.15,2013-11-15 22:45:00,
2013-11-15 17:50:00,77.1,70.5,30.01,SW,217,3.0,10.0,80,0.00,,,0.00,Wunderground v.1.15,2013-11-15 22:50:00,
2013-11-15 17:55:00,76.1,70.6,30.01,South,177,3.0,10.0,83,0.31,,,0.02,Wunderground v.1.15,2013-11-15 22:55:00,
2013-11-15 18:00:00,75.1,70.3,30.02,SW,231,5.0,5.0,85,0.11,,,0.02,Wunderground v.1.15,2013-11-15 23:00:00,
2013-11-15 18:10:00,74.0,70.2,30.02,SW,235,5.0,5.0,88,0.04,,,0.02,Wunderground v.1.15,2013-11-15 23:10:00,
2013-11-15 18:15:00,73.7,70.3,30.01,SW,235,4.0,5.0,89,0.00,,,0.02,Wunderground v.1.15,2013-11-15 23:15:00,
2013-11-15 18:20:00,73.5,70.1,30.01,WSW,252,4.0,4.0,89,0.00,,,0.02,Wunderground v.1.15,2013-11-15 23:20:00,
2013-11-15 18:25:00,73.3,70.2,30.01,SW,224,3.0,4.0,90,0.00,,,0.02,Wunderground v.1.15,2013-11-15 23:25:00,
2013-11-15 18:30:00,73.1,70.0,30.01,WNW,292,3.0,4.0,90,0.00,,,0.02,Wunderground v.1.15,2013-11-15 23:30:00,
2013-11-15 18:35:00,73.1,70.3,30.01,WSW,242,2.0,9.0,91,0.00,,,0.02,Wunderground v.1.15,2013-11-15 23:35:00,
2013-11-15 18:40:00,73.1,70.3,30.01,West,263,1.0,1.0,91,0.00,,,0.02,Wunderground v.1.15,2013-11-15 23:40:00,
2013-11-15 18:45:00,73.1,70.3,30.01,WSW,254,0.0,2.0,91,0.00,,,0.02,Wunderground v.1.15,2013-11-15 23:45:00,
2013-11-15 18:50:00,73.2,70.4,30.01,WNW,287,0.0,9.0,91,0.00,,,0.02,Wunderground v.1.15,2013-11-15 23:50:00,
2013-11-15 18:55:00,73.1,70.3,30.01,WNW,287,0.0,9.0,91,0.00,,,0.02,Wunderground v.1.15,2013-11-15 23:55:00,
2013-11-15 19:00:00,73.1,70.6,30.02,WNW,287,0.0,0.0,92,0.00,,,0.02,Wunderground v.1.15,2013-11-16 00:00:00,
2013-11-15 19:05:00,73.1,70.6,30.02,WNW,287,0.0,0.0,92,0.00,,,0.02,Wunderground v.1.15,2013-11-16 00:05:00,
2013-11-15 19:10:00,73.1,70.6,30.02,WNW,287,0.0,0.0,92,0.00,,,0.02,Wunderground v.1.15,2013-11-16 00:10:00,
2013-11-15 19:15:00,73.0,70.2,30.02,South,188,0.0,0.0,91,0.00,,,0.02,Wunderground v.1.15,2013-11-16 00:15:00,
2013-11-15 19:20:00,73.4,69.6,30.02,SSW,209,1.0,3.0,88,0.00,,,0.02,Wunderground v.1.15,2013-11-16 00:20:00,
2013-11-15 19:25:00,74.3,69.1,30.02,SSW,193,1.0,3.0,84,0.00,,,0.02,Wunderground v.1.15,2013-11-16 00:25:00,
2013-11-15 19:30:00,75.0,68.8,30.03,SSW,193,2.0,3.0,81,0.00,,,0.02,Wunderground v.1.15,2013-11-16 00:30:00,
2013-11-15 19:35:00,75.6,68.6,30.03,South,169,2.0,9.0,79,0.00,,,0.02,Wunderground v.1.15,2013-11-16 00:35:00,
2013-11-15 19:40:00,75.9,68.5,30.03,South,188,2.0,2.0,78,0.00,,,0.02,Wunderground v.1.15,2013-11-16 00:40:00,
2013-11-15 19:45:00,76.1,68.4,30.03,SSW,193,2.0,9.0,77,0.00,,,0.02,Wunderground v.1.15,2013-11-16 00:45:00,
2013-11-15 19:50:00,76.3,68.2,30.03,South,190,2.0,2.0,76,0.00,,,0.02,Wunderground v.1.15,2013-11-16 00:50:00,
2013-11-15 19:55:00,76.5,68.0,30.04,WSW,245,2.0,9.0,75,0.00,,,0.02,Wunderground v.1.15,2013-11-16 00:55:00,
2013-11-15 20:00:00,76.7,68.6,30.03,WSW,258,2.0,2.0,76,0.00,,,0.02,Wunderground v.1.15,2013-11-16 01:00:00,
2013-11-15 20:05:00,76.6,68.1,30.04,South,189,2.0,6.0,75,0.00,,,0.02,Wunderground v.1.15,2013-11-16 01:05:00,
2013-11-15 20:10:00,76.9,68.0,30.04,SSE,160,3.0,3.0,74,0.00,,,0.02,Wunderground v.1.15,2013-11-16 01:10:00,
2013-11-15 20:15:00,77.0,67.7,30.04,SSW,207,3.0,3.0,73,0.00,,,0.02,Wunderground v.1.15,2013-11-16 01:15:00,
2013-11-15 20:20:00,77.0,67.7,30.04,SSW,207,3.0,3.0,73,0.00,,,0.02,Wunderground v.1.15,2013-11-16 01:20:00,
2013-11-15 20:25:00,77.0,67.7,30.04,South,174,3.0,4.0,73,0.00,,,0.02,Wunderground v.1.15,2013-11-16 01:25:00,
2013-11-15 20:30:00,77.0,67.3,30.04,SSW,195,3.0,3.0,72,0.00,,,0.02,Wunderground v.1.15,2013-11-16 01:30:00,
2013-11-15 20:35:00,77.0,67.3,30.04,South,191,3.0,8.0,72,0.00,,,0.02,Wunderground v.1.15,2013-11-16 01:35:00,
2013-11-15 20:40:00,77.1,67.4,30.04,South,189,2.0,8.0,72,0.00,,,0.02,Wunderground v.1.15,2013-11-16 01:40:00,
2013-11-15 20:45:00,77.2,67.5,30.04,SW,218,3.0,8.0,72,0.00,,,0.02,Wunderground v.1.15,2013-11-16 01:45:00,
2013-11-15 20:50:00,77.1,67.4,30.04,South,186,3.0,3.0,72,0.00,,,0.02,Wunderground v.1.15,2013-11-16 01:50:00,
2013-11-15 20:55:00,77.1,67.4,30.05,SW,217,2.0,6.0,72,0.00,,,0.02,Wunderground v.1.15,2013-11-16 01:55:00,
2013-11-15 21:00:00,77.2,67.1,30.05,SSW,207,3.0,5.0,71,0.00,,,0.02,Wunderground v.1.15,2013-11-16 02:00:00,
2013-11-15 21:05:00,77.3,67.2,30.05,SSW,212,3.0,5.0,71,0.00,,,0.02,Wunderground v.1.15,2013-11-16 02:05:00,
2013-11-15 21:10:00,77.3,67.6,30.05,SW,217,3.0,3.0,72,0.00,,,0.02,Wunderground v.1.15,2013-11-16 02:10:00,
2013-11-15 21:15:00,77.2,67.5,30.04,West,275,3.0,3.0,72,0.00,,,0.02,Wunderground v.1.15,2013-11-16 02:15:00,
2013-11-15 21:20:00,77.3,67.2,30.04,SSW,203,3.0,5.0,71,0.00,,,0.02,Wunderground v.1.15,2013-11-16 02:20:00,
2013-11-15 21:25:00,77.5,66.9,30.04,SSW,197,4.0,5.0,70,0.00,,,0.02,Wunderground v.1.15,2013-11-16 02:25:00,
2013-11-15 21:30:00,77.5,66.9,30.04,SW,215,3.0,3.0,70,0.00,,,0.02,Wunderground v.1.15,2013-11-16 02:30:00,
2013-11-15 21:35:00,77.5,66.9,30.04,South,183,3.0,8.0,70,0.00,,,0.02,Wunderground v.1.15,2013-11-16 02:35:00,
2013-11-15 21:40:00,77.6,67.0,30.05,SSW,195,3.0,8.0,70,0.00,,,0.02,Wunderground v.1.15,2013-11-16 02:40:00,
2013-11-15 21:45:00,77.6,67.0,30.05,South,175,3.0,8.0,70,0.00,,,0.02,Wunderground v.1.15,2013-11-16 02:45:00,
2013-11-15 21:50:00,77.7,66.7,30.05,West,281,3.0,8.0,69,0.00,,,0.02,Wunderground v.1.15,2013-11-16 02:50:00,
2013-11-15 21:55:00,77.7,66.7,30.04,South,181,4.0,8.0,69,0.00,,,0.02,Wunderground v.1.15,2013-11-16 02:55:00,
2013-11-15 22:00:00,77.7,66.7,30.04,SW,236,3.0,3.0,69,0.00,,,0.02,Wunderground v.1.15,2013-11-16 03:00:00,
2013-11-15 22:05:00,77.7,67.1,30.04,SW,229,3.0,4.0,70,0.00,,,0.02,Wunderground v.1.15,2013-11-16 03:05:00,
2013-11-15 22:10:00,77.7,67.1,30.04,SSW,207,3.0,3.0,70,0.00,,,0.02,Wunderground v.1.15,2013-11-16 03:10:00,
2013-11-15 22:15:00,77.7,67.1,30.04,SSW,196,3.0,4.0,70,0.00,,,0.02,Wunderground v.1.15,2013-11-16 03:15:00,
2013-11-15 22:20:00,77.8,67.2,30.04,South,188,3.0,4.0,70,0.00,,,0.02,Wunderground v.1.15,2013-11-16 03:20:00,
2013-11-15 22:25:00,77.8,67.2,30.05,SW,229,3.0,4.0,70,0.00,,,0.02,Wunderground v.1.15,2013-11-16 03:25:00,
2013-11-15 22:30:00,77.8,67.2,30.05,SSW,203,3.0,5.0,70,0.00,,,0.02,Wunderground v.1.15,2013-11-16 03:30:00,
2013-11-15 22:35:00,77.9,66.9,30.04,SW,224,3.0,12.0,69,0.00,,,0.02,Wunderground v.1.15,2013-11-16 03:35:00,
2013-11-15 22:40:00,77.8,67.2,30.05,WSW,238,3.0,12.0,70,0.00,,,0.02,Wunderground v.1.15,2013-11-16 03:40:00,
2013-11-15 22:45:00,77.8,67.2,30.05,SW,225,3.0,12.0,70,0.00,,,0.02,Wunderground v.1.15,2013-11-16 03:45:00,
2013-11-15 22:50:00,77.8,66.8,30.04,SSW,204,3.0,12.0,69,0.00,,,0.02,Wunderground v.1.15,2013-11-16 03:50:00,
2013-11-15 23:00:00,77.8,67.2,30.04,SSW,195,4.0,4.0,70,0.00,,,0.02,Wunderground v.1.15,2013-11-16 04:00:00,
2013-11-15 23:05:00,77.8,67.2,30.05,West,259,3.0,5.0,70,0.00,,,0.02,Wunderground v.1.15,2013-11-16 04:05:00,
2013-11-15 23:10:00,77.7,67.1,30.04,SW,221,3.0,3.0,70,0.00,,,0.02,Wunderground v.1.15,2013-11-16 04:10:00,
2013-11-15 23:15:00,77.7,67.1,30.04,South,186,3.0,4.0,70,0.00,,,0.02,Wunderground v.1.15,2013-11-16 04:15:00,
2013-11-15 23:20:00,77.8,67.6,30.04,SSW,193,3.0,4.0,71,0.00,,,0.02,Wunderground v.1.15,2013-11-16 04:20:00,
2013-11-15 23:25:00,77.7,67.5,30.04,South,189,3.0,4.0,71,0.00,,,0.02,Wunderground v.1.15,2013-11-16 04:25:00,
2013-11-15 23:30:00,77.8,67.6,30.04,South,191,3.0,3.0,71,0.00,,,0.02,Wunderground v.1.15,2013-11-16 04:30:00,
2013-11-15 23:35:00,77.8,68.0,30.05,South,191,3.0,5.0,72,0.00,,,0.02,Wunderground v.1.15,2013-11-16 04:35:00,
2013-11-15 23:40:00,77.9,68.1,30.05,South,186,3.0,10.0,72,0.00,,,0.02,Wunderground v.1.15,2013-11-16 04:40:00,
2013-11-15 23:45:00,77.8,68.0,30.05,SSW,208,3.0,10.0,72,0.00,,,0.02,Wunderground v.1.15,2013-11-16 04:45:00,
2013-11-15 23:50:00,77.8,68.0,30.05,SW,231,3.0,3.0,72,0.00,,,0.02,Wunderground v.1.15,2013-11-16 04:50:00,
2013-11-15 23:55:00,77.8,68.4,30.04,South,189,2.0,10.0,73,0.00,,,0.02,Wunderground v.1.15,2013-11-16 04:55:00,